Hourly Data Report for September 09, 2017

All times are specified in Local Standard Time (LST). Add 1 hour to adjust for Daylight Saving Time where and when it is observed.

RESOLUTE BAY A
NUNAVUT

74°43'01.000" N
94°58'10.000" W
67.70 m
2403498
71924
YRB

Download Data

Hourly Data (September 2017)
Hourly Data Report for September 9, 2017
Temp Definition
°C
Dew Point Temp Definition
°C
Rel Hum Definition
%
Wind Dir Definition
10's deg

Wind Spd Definition
km/h
Visibility Definition
km
Stn Press Definition
kPa
Hmdx Definition


Wind Chill Definition


Weather Definition


TIME
00:00 Legend Double Dagger -2.3 -4.3 86 35 43 16.1 98.94   -11 Blowing Snow
01:00 Legend Double Dagger -3.1 -5.0 87 36 47 16.1 98.99   -12 Blowing Snow
02:00 Legend Double Dagger -3.2 -5.5 84 1 47 16.1 99.03   -12 Blowing Snow
03:00 Legend Double Dagger -3.6 -6.1 83 1 53 16.1 99.05   -13 Blowing Snow
04:00 Legend Double Dagger -3.9 -6.9 80 1 53 24.1 99.09   -14 LegendNANA
05:00 Legend Double Dagger -5.3 -7.4 85 36 52 24.1 99.16   -16 Blowing Snow
06:00 Legend Double Dagger -5.9 -8.3 83 36 49 24.1 99.23   -16 Mainly Clear
07:00 Legend Double Dagger -5.1 -8.3 79 36 52 24.1 99.29   -15 LegendNANA
08:00 Legend Double Dagger -5.7 -8.0 84 36 39 24.1 99.35   -15 LegendNANA
09:00 Legend Double Dagger -5.8 -8.9 79 1 42 24.1 99.36   -15 Clear
10:00 Legend Double Dagger -5.7 -9.4 75 35 32 24.1 99.42   -14 LegendNANA
11:00 Legend Double Dagger -5.4 -9.7 72 34 28 24.1 99.46   -13 LegendNANA
12:00 Legend Double Dagger -5.6 -9.1 76 33 33 24.1 99.50   -14 Cloudy
13:00 Legend Double Dagger -5.4 -8.2 80 33 36 24.1 99.50   -14 LegendNANA
14:00 Legend Double Dagger -5.9 -8.3 83 33 37 24.1 99.57   -15 LegendNANA
15:00 Legend Double Dagger -5.3 -8.1 81 33 32 24.1 99.56   -14 Cloudy
16:00 Legend Double Dagger -4.6 -9.3 70 31 33 24.1 99.55   -13 LegendNANA
17:00 Legend Double Dagger -5.3 -9.5 73 31 35 24.1 99.57   -14 LegendNANA
18:00 Legend Double Dagger -5.7 -8.7 80 32 35 24.1 99.57   -14 Cloudy
19:00 Legend Double Dagger -5.5 -7.8 84 31 34 24.1 99.56   -14 Snow
20:00 Legend Double Dagger -5.2 -7.3 86 31 31 24.1 99.57   -13 Snow
21:00 Legend Double Dagger -4.8 -7.7 80 30 25 24.1 99.55   -12 Snow
22:00 Legend Double Dagger -4.2 -7.5 78 30 26 24.1 99.52   -11 LegendNANA
23:00 Legend Double Dagger -3.4 -6.5 79 29 27 16.1 99.50   -11 LegendNANA

Notes on Data Quality.

Legend

  • E = Estimated
  • M = Missing
  • NA = Not Available
  • ‡ = Partner data that is not subject to review by the National Climate Archives
Date modified: